Location: Brusselsch Zeekanaal
(50.8667°N, 4.3667°E)
Time: 09:01:49
(UTC+00:00)

NOSS 2-1 (C) - Pass Details

Date: 08 November 2025
Orbit: 375 x 1687 km, 63.3° (Epoch: 12 December)

Event Time Altitude Azimuth Distance (km) Brightness Sun altitude
Exits shadow 04:13:31 36° 117° (ESE) 689 4.2 -24.3°
Drops below altitude 10° 04:16:09 10° 59° (ENE) 1,433 6.3 -23.8°
Sets 04:18:07 0° 50° (NE) 2,256 7.3 -23.5°
